Flag for U.S.A. Weather past 2 weeks in Portland, Oregon, U.S.A.

Now
71 °F

Clear.


Feels Like: 75 °F
Forecast: 57 / 89 °F
Wind: 9 mph from Northwest

Location: Portland International Airport

Current Time: Sep 19, 2014 at 9:19:45 PM

Latest Report: Sep 19, 2014 at 8:53 PM


Visibility: 10 mi

Pressure: 30.02 "Hg

Humidity: 63%

Dew point: 58 °F

Location of PortlandLocation

Historic Weather in Portland — Graph

°F

Portland temperature yesterday

Maximum temperature yesterday: 73 °F (at 4:53 PM)
Minimum temperature yesterday: 61 °F (at 8:53 AM)
Average temperature yesterday: 66 °F

Past Weeks' High & Low Weather Summary

 TemperatureHumidityPressure
High94 °F (Sep 6, 3:53 PM)97% (Sep 18, 9:53 AM)30.21 "Hg (Sep 18, 9:53 AM)
Low52 °F (Sep 12, 5:53 AM)12% (Sep 13, 1:53 PM)29.68 "Hg (Sep 17, 5:53 PM)
Average69 °F55%29.93 "Hg
* Reported Sep 4 7:53 PM — Sep 19 7:53 PM, Portland, Weather by CustomWeather, © 2014

Note: Actual official high and low records may vary slightly from our data, if they occured in-between our weather recording intervals... More about our weather records

Advertising

Portland weather history for previous 24 hours

 ConditionsComfort  
Time TempWeatherWind HumidityBarometerVisibility
7:53 PM
Sep 19
74 °FPassing clouds.8 mph60%30.01 "Hg10 mi
6:53 PM77 °FPassing clouds.7 mph50%30.00 "Hg10 mi
5:53 PM80 °FPassing clouds.6 mph45%30.01 "Hg10 mi
4:53 PM81 °FPassing clouds.6 mph44%30.02 "Hg10 mi
3:53 PM81 °FPassing clouds.9 mph38%30.03 "Hg10 mi
2:53 PM81 °FScattered clouds.8 mph37%30.05 "Hg10 mi
1:53 PM77 °FPassing clouds.7 mph45%30.06 "Hg10 mi
12:53 PM75 °FPassing clouds.6 mph50%30.08 "Hg10 mi
11:53 AM74 °FPassing clouds.5 mph56%30.09 "Hg10 mi
10:53 AM70 °FPassing clouds.3 mph68%30.09 "Hg10 mi
9:53 AM68 °FPassing clouds.No wind73%30.10 "Hg10 mi
8:53 AM66 °FPassing clouds.No wind81%30.09 "Hg10 mi
7:53 AM63 °FPassing clouds.No wind87%30.08 "Hg10 mi
6:53 AM62 °FPassing clouds.No wind90%30.06 "Hg10 mi
5:53 AM63 °FMostly cloudy.No wind87%30.05 "Hg10 mi
4:53 AM63 °FMostly cloudy.5 mph87%30.03 "Hg10 mi
3:53 AM63 °FPassing clouds.5 mph87%30.03 "Hg10 mi
2:53 AM62 °FOvercast.7 mph90%30.02 "Hg10 mi
1:53 AM63 °FMostly cloudy.5 mph87%30.01 "Hg10 mi
12:53 AM65 °FPassing clouds.5 mph81%30.01 "Hg10 mi
11:53 PM
Sep 18
66 °FPassing clouds.6 mph78%30.00 "Hg10 mi
10:53 PM65 °FPassing clouds.5 mph81%29.98 "Hg10 mi
9:53 PM67 °FPartly cloudy.5 mph79%29.97 "Hg10 mi
Weather by CustomWeather, © 2014

See weather overviewHow to use our weather pages